Home   Weather   Wageningen   Past weeks

Flag for Netherlands Past Weather in Wageningen, Netherlands — Yesterday and Last 2 Weeks

Now
63 °F

Broken clouds.


Feels Like: 63 °F
Forecast: 54 / 66 °F
Wind: 8 mph from West

Location: Deelen

Current Time: Aug 19, 2017 at 5:14:32 pm

Latest Report: Aug 19, 2017 at 4:25 pm


Visibility: N/A

Pressure: 30.01 "Hg

Humidity: 83%

Dew Point: 57 °F

Location of WageningenLocation

Past Weather in Wageningen — Graph

°F

Wageningen Temperature Yesterday

Maximum temperature yesterday: 70 °F (at 1:25 pm)
Minimum temperature yesterday: 54 °F (at 11:55 pm)
Average temperature yesterday: 62 °F

High & Low Weather Summary for the Past Weeks

 TemperatureHumidityPressure
High77 °F (Aug 14, 4:25 pm)100% (Aug 5, 10:55 pm)30.18 "Hg (Aug 5, 10:55 pm)
Low46 °F (Aug 7, 4:25 am)44% (Aug 7, 5:55 pm)29.74 "Hg (Aug 8, 1:55 pm)
Average62 °F82%30.01 "Hg
* Reported Aug 4 4:25 pm — Aug 19 4:25 pm, Wageningen. Weather by CustomWeather, © 2017

Note: Actual official high and low records may vary slightly from our data, if they occured in-between our weather recording intervals... More about our weather records

Advertising

Wageningen Weather History for the Previous 24 Hours

Scroll right to see more
 ConditionsComfort  
Time TempWeatherWind HumidityBarometerVisibility
4:25 pm
Sat, Aug 19
63 °FBroken clouds.8 mph83%30.01 "HgN/A
3:25 pm64 °FPassing clouds.15 mph78%30.01 "HgN/A
2:55 pm64 °FBroken clouds.16 mph73%29.98 "HgN/A
2:25 pm63 °FBroken clouds.14 mph73%29.98 "HgN/A
1:55 pm64 °FPartly sunny.14 mph68%29.98 "HgN/A
1:25 pm64 °FPartly sunny.13 mph60%29.98 "HgN/A
12:55 pm64 °FScattered clouds.13 mph64%29.98 "HgN/A
12:25 pm61 °FPartly sunny.12 mph83%29.95 "HgN/A
11:55 am59 °FLight rain. Broken clouds.13 mph88%29.95 "HgN/A
11:25 am59 °FBroken clouds.12 mph88%29.95 "HgN/A
10:55 am59 °FCloudy.15 mph88%29.95 "HgN/A
10:25 am57 °FBroken clouds.10 mph94%29.95 "HgN/A
9:55 am57 °FMostly cloudy.14 mph94%29.92 "HgN/A
9:25 am57 °FCloudy.12 mph88%29.92 "HgN/A
8:55 am55 °FDrizzle. Mostly cloudy.10 mph94%29.92 "Hg6 mi
8:25 am55 °FLight rain. Broken clouds.13 mph94%29.92 "Hg4 mi
7:55 am55 °FDrizzle. More clouds than sun.12 mph88%29.89 "HgN/A
7:25 am55 °FScattered clouds.14 mph88%29.89 "HgN/A
6:55 am55 °FBroken clouds.13 mph88%29.89 "HgN/A
6:25 am54 °FOvercast.10 mph94%29.89 "HgN/A
5:55 am54 °FPassing clouds.9 mph94%29.89 "HgN/A
5:25 am54 °FPassing clouds.9 mph94%29.89 "HgN/A
4:55 am54 °FCool.9 mph94%29.89 "HgN/A
4:25 am54 °FPassing clouds.10 mph94%29.89 "HgN/A
3:55 am54 °FCool.9 mph94%29.89 "HgN/A
3:25 am54 °FPassing clouds.9 mph94%29.89 "HgN/A
2:55 am54 °FPassing clouds.9 mph94%29.89 "HgN/A
2:25 am54 °FCool.8 mph94%29.89 "HgN/A
1:55 am54 °FPassing clouds.8 mph94%29.89 "HgN/A
1:25 am54 °FCool.7 mph94%29.89 "HgN/A
12:55 am54 °FCool.6 mph94%29.89 "HgN/A
12:25 am54 °FPassing clouds.6 mph94%29.89 "HgN/A
11:55 pm
Fri, Aug 18
54 °FCool.6 mph100%29.89 "HgN/A
11:25 pm55 °FPassing clouds.6 mph94%29.89 "HgN/A
10:55 pm57 °FPassing clouds.9 mph88%29.89 "HgN/A
10:25 pm59 °FMostly cloudy.9 mph88%29.89 "HgN/A
9:55 pm59 °FPartly cloudy.6 mph94%29.86 "HgN/A
9:25 pm59 °FPartly cloudy.6 mph100%29.86 "HgN/A
8:55 pm59 °FPartly cloudy.7 mph94%29.86 "HgN/A
8:25 pm59 °FBroken clouds.7 mph94%29.83 "HgN/A
7:55 pm61 °FBroken clouds.7 mph88%29.83 "HgN/A
7:25 pm63 °FDrizzle. Overcast.10 mph83%29.83 "HgN/A
6:55 pm64 °FLight rain. Broken clouds.9 mph78%29.83 "HgN/A
6:25 pm66 °FScattered clouds.10 mph73%29.83 "HgN/A
5:55 pm68 °FPassing clouds.10 mph69%29.83 "HgN/A
5:25 pm66 °FPartly sunny.12 mph73%29.83 "HgN/A
Weather by CustomWeather, © 2017

See weather overviewHow to use our weather pages